This demonstration page uses our WeatherBlox Daily Observations layout. Learn more.

Left ArrowRight Arrow

39.01783, -85.05884

Hourly Observations for February 6, 2017

Temp ( °F °C ) Dew Point ( °F °C ) Humidity (%) Winds ( mph kmh ) Pressure ( in mb ) Visibility ( mi km ) Precip ( " mm )
12:52 am 00:52 Mostly Cloudy 32 0 27 -2.8 82 82 Calm 30.11 1020 10 16 0.00 0.00
1:52 am 01:52 Mostly Clear 30 -1.1 26 -3.3 85 85 Calm 30.11 1020 9 14 0.00 0.00
2:52 am 02:52 Mostly Clear 30 -1.1 26 -3.3 85 85 Calm 30.09 1019 9 14 0.00 0.00
3:52 am 03:52 Mostly Clear 27 -2.8 25 -3.9 92 92 S 5 7 30.09 1019 8 13 0.00 0.00
4:52 am 04:52 Mostly Clear 34 1.1 28 -2.2 79 79 Calm 30.10 1019 9 14 0.00 0.00
5:52 am 05:52 Partly Cloudy 33 0.6 27 -2.8 78 78 SSE 3 6 30.10 1019 9 14 0.00 0.00
6:52 am 06:52 Mostly Cloudy 35 1.7 29 -1.7 78 78 Calm 30.10 1019 9 14 0.00 0.00
7:52 am 07:52 Mostly Cloudy 33 0.6 29 -1.7 85 85 S 8 13 30.11 1020 8 13 0.00 0.00
8:52 am 08:52 Mostly Sunny 39 3.9 35 1.7 86 86 S 9 15 30.10 1019 7 11 0.00 0.00
9:52 am 09:52 Mostly Sunny 43 6.1 38 3.3 82 82 S 10 17 30.09 1019 8 13 0.00 0.00
10:52 am 10:52 Partly Cloudy 49 9.4 40 4.4 71 71 S 6 9 30.07 1018 10 16 0.00 0.00
11:52 am 11:52 Mostly Cloudy 55 12.8 41 5 59 59 S 12 19 30.04 1017 10 16 0.00 0.00
12:52 pm 12:52 Mostly Cloudy 59 15 39 3.9 48 48 S 13 20 29.99 1016 10 16 0.00 0.00
1:52 pm 13:52 Mostly Cloudy 60 15.6 39 3.9 46 46 SSW 18 30 29.96 1015 10 16 0.00 0.00
2:39 pm 14:39 Cloudy 56 13.3 41 5 57 57 SSW 12 19 29.94 1014 10 16 0.00 0.00
2:52 pm 14:52 Cloudy 56 13.3 41 5 57 57 SSW 12 19 29.95 1014 10 16 0.00 0.00
3:48 pm 15:48 Cloudy 54 12.2 44 6.7 69 69 S 12 19 29.93 1014 10 16 0.00 0.00
4:52 pm 16:52 Cloudy 53 11.7 46 7.8 77 77 S 10 17 29.91 1013 10 16 0.00 0.00
5:52 pm 17:52 Cloudy with Light Rain 52 11.1 46 7.8 80 80 S 8 13 29.90 1013 10 16 0.01 0.25
6:30 pm 18:30 Cloudy 52 11 46 8 82 82 S 8 13 29.88 1012 10 16 0.00 0.00
6:52 pm 18:52 Cloudy 53 11.7 48 8.9 83 83 S 12 19 29.88 1012 10 16 0.00 0.03
7:52 pm 19:52 Cloudy 54 12.2 51 10.6 90 90 S 14 22 29.87 1011 10 16 0.00 0.00
8:21 pm 20:21 Cloudy 54 12.2 51 10.6 90 90 S 12 19 29.85 1011 10 16 0.00 0.03
8:52 pm 20:52 Cloudy 54 12.2 52 11.1 93 93 S 15 24 29.85 1011 10 16 0.00 0.03
9:52 pm 21:52 Cloudy 54 12.2 52 11.1 93 93 S 12 19 29.83 1010 9 14 0.00 0.00
10:52 pm 22:52 Cloudy with Light Rain 54 12.2 53 11.7 97 97 S 12 19 29.81 1009 3 5 0.00 0.03
11:06 pm 23:06 Cloudy with Thunderstorms 54 12.2 54 12.2 100 100 S 9 15 29.80 1009 3 5 0.02 0.51
11:11 pm 23:11 Cloudy with Thunderstorms 54 12.2 54 12.2 100 100 S 10 17 29.83 1010 2 3 0.03 0.76
11:46 pm 23:46 Cloudy with Thunderstorms 54 12 54 12 100 100 S 14 22 29.77 1008 2 3 0.00 0.00
11:52 pm 23:52 Cloudy with Thunderstorms 54 12.2 54 12.2 100 100 SSE 15 24 29.77 1008 2 3 0.28 7.11

Powered by AerisWeather